EW5186 Weather Reports


Display with metric or nautical units.
time (UTC)temp
F
wind
direction
speed
MPH
gust
MPH
rain 1hr
in
rain 24hr
in
rain mn
in
humidity
%
barometer
mb
20260905060013 59 288 0.0 0.0 0.00 0.30 0.00 94 1011.3
20260905054511 60 288 0.0 0.0 0.00 0.30 0.00 95 1011.4
20260905053052 60 289 0.0 0.0 0.00 0.30 0.00 94 1011.3
20260905051550 60 289 0.0 0.0 0.00 0.30 0.00 94 1011.7
20260905050031 61 288 0.0 0.0 0.00 0.30 0.00 94 1011.7
20260905044531 61 288 0.0 0.0 0.00 0.30 0.00 94 1011.8
20260905043012 61 288 0.0 1.0 0.00 0.30 0.00 94 1011.8
20260905041512 61 288 0.0 0.0 0.00 0.30 0.00 94 1011.8
20260905040056 61 288 0.0 0.0 0.00 0.30 0.30 94 1011.8
20260905034551 61 288 0.0 0.0 0.00 0.30 0.30 94 1011.6
20260905033032 61 288 0.0 0.0 0.00 0.30 0.30 93 1011.6
20260905031531 62 288 0.0 0.0 0.00 0.30 0.30 93 1011.6
20260905030012 62 288 0.0 0.0 0.00 0.30 0.30 92 1011.5
20260905024514 63 288 0.0 0.0 0.00 0.30 0.30 93 1011.4
20260905023053 63 288 0.0 0.0 0.00 0.30 0.30 93 1011.5
20260905021553 63 288 0.0 0.0 0.00 0.30 0.30 93 1011.5
20260905020039 63 288 0.0 0.0 0.00 0.30 0.30 92 1011.7
20260905014537 64 288 0.0 0.0 0.00 0.30 0.30 91 1011.5
20260905013039 64 288 0.0 0.0 0.00 0.30 0.30 92 1011.5
20260905011535 64 288 0.0 0.0 0.00 0.30 0.30 90 1011.5
20260905010042 65 288 0.0 0.0 0.00 0.30 0.30 89 1011.7
20260905004532 65 288 0.0 0.0 0.00 0.30 0.30 88 1011.8
20260905003042 65 288 0.0 0.0 0.00 0.30 0.30 88 1011.7
20260905001531 65 288 0.0 0.0 0.00 0.30 0.30 86 1011.6
20260905000016 67 288 0.0 0.0 0.00 0.30 0.30 84 1011.5
20260904234513 68 288 0.0 0.0 0.00 0.30 0.30 83 1011.2
20260904233015 68 288 0.0 0.0 0.00 0.30 0.30 81 1011.2
20260904231513 70 288 0.0 0.0 0.00 0.30 0.30 79 1011.2
20260904230015 73 288 0.0 0.0 0.00 0.30 0.30 75 1011.1
20260904224515 75 288 0.0 1.0 0.00 0.30 0.30 71 1011.2
20260904223008 76 142 0.0 2.0 0.00 0.30 0.30 68 1011.2
20260904221508 77 321 0.0 2.0 0.00 0.30 0.30 66 1011.1
20260904220050 79 307 0.0 2.0 0.00 0.30 0.30 63 1011.1
20260904214550 81 297 0.0 3.0 0.00 0.30 0.30 59 1011.0
20260904213032 82 297 0.0 3.0 0.00 0.30 0.30 56 1011.0
20260904211631 83 117 0.0 3.0 0.00 0.30 0.30 59 1011.0
20260904210020 83 223 0.0 5.0 0.00 0.30 0.30 57 1011.1
20260904204521 82 255 0.0 6.0 0.00 0.30 0.30 56 1011.1
20260904203019 82 212 1.0 7.0 0.00 0.30 0.30 56 1011.1
20260904201517 81 281 0.0 12.0 0.00 0.30 0.30 60 1011.3
20260904200017 83 64 1.0 8.0 0.00 0.30 0.30 57 1011.2
20260904194517 83 264 1.0 8.0 0.00 0.30 0.30 54 1011.2
20260904193032 82 39 0.0 6.0 0.00 0.30 0.30 60 1011.2
20260904191613 82 293 1.0 7.0 0.00 0.30 0.30 61 1011.3
20260904190057 80 231 2.0 8.0 0.00 0.30 0.30 59 1011.5
20260904184554 81 229 3.0 9.0 0.00 0.30 0.30 61 1011.6
20260904183036 82 248 1.0 8.0 0.00 0.30 0.30 59 1011.5
20260904181535 82 321 2.0 8.0 0.00 0.30 0.30 61 1011.4
20260904180018 82 216 1.0 8.0 0.00 0.30 0.30 60 1011.5
20260904174517 82 329 1.0 8.0 0.00 0.30 0.30 59 1011.2
20260904173000 82 314 2.0 8.0 0.00 0.30 0.30 60 1011.2
20260904171601 82 203 0.0 11.0 0.00 0.30 0.30 60 1011.3
20260904170045 82 274 2.0 9.0 0.00 0.30 0.30 64 1011.5
20260904164543 82 240 2.0 7.0 0.00 0.30 0.30 62 1011.7
20260904163043 81 39 1.0 9.0 0.00 0.30 0.30 65 1011.5
20260904161543 81 166 0.0 7.0 0.00 0.30 0.30 66 1011.6
20260904160039 81 245 1.0 9.0 0.00 0.30 0.30 68 1011.9
20260904154536 80 72 2.0 9.0 0.00 0.30 0.30 65 1012.2
20260904153045 80 231 1.0 8.0 0.00 0.30 0.30 70 1012.2
20260904151533 79 196 2.0 7.0 0.00 0.30 0.30 69 1012.2
20260904150023 79 280 2.0 9.0 0.00 0.30 0.30 70 1012.3
20260904144511 79 72 1.0 6.0 0.00 0.30 0.30 73 1012.3
20260904143111 78 267 4.0 12.0 0.00 0.30 0.30 74 1012.4
20260904141555 78 288 3.0 9.0 0.00 0.30 0.30 77 1012.4
20260904140103 78 198 2.0 8.0 0.00 0.30 0.30 78 1012.4
20260904134534 78 209 0.0 4.0 0.00 0.30 0.30 80 1012.3
20260904133031 78 316 1.0 6.0 0.00 0.30 0.30 83 1012.3
20260904131511 76 145 0.0 4.0 0.00 0.30 0.30 83 1012.4
20260904130018 76 60 0.0 1.0 0.00 0.30 0.30 86 1012.3
20260904124555 75 263 0.0 2.0 0.00 0.30 0.30 88 1012.3
20260904123045 74 38 0.0 2.0 0.00 0.30 0.30 92 1012.2
20260904121524 73 338 0.0 0.0 0.00 0.30 0.30 94 1012.2
20260904120031 72 334 0.0 0.0 0.00 0.30 0.30 97 1012.2
20260904114507 71 217 0.0 0.0 0.00 0.30 0.30 97 1012.1
20260904113006 69 209 0.0 0.0 0.00 0.30 0.30 97 1012.0
20260904111505 68 211 0.0 1.0 0.00 0.30 0.30 97 1011.9
20260904110005 68 211 0.0 0.0 0.00 0.30 0.30 96 1011.7
20260904104506 69 211 0.0 1.0 0.00 0.30 0.30 96 1011.5
20260904103003 69 211 0.0 0.0 0.00 0.30 0.30 96 1011.4
20260904101606 70 211 0.0 0.0 0.00 0.30 0.30 96 1011.4
20260904100059 70 211 0.0 0.0 0.01 0.30 0.30 97 1011.5
20260904094547 70 211 0.0 0.0 0.03 0.30 0.30 97 1011.5
20260904093048 70 211 0.0 0.0 0.19 0.30 0.30 97 1011.1
20260904091546 70 211 0.0 3.0 0.28 0.30 0.30 96 1011.1
20260904090044 70 244 0.0 0.0 0.28 0.28 0.28 96 1010.5
20260904084543 70 146 0.0 4.0 0.27 0.27 0.27 96 1010.5
20260904083041 70 334 0.0 6.0 0.10 0.10 0.10 96 1011.5
20260904081548 70 76 0.0 0.0 0.01 0.01 0.01 96 1011.1
20260904080043 70 75 0.0 0.0 0.00 0.01 0.00 96 1011.2
20260904074526 70 76 0.0 0.0 0.00 0.01 0.00 96 1011.3
20260904073026 70 76 0.0 0.0 0.00 0.01 0.00 96 1011.2
20260904071524 70 76 0.0 0.0 0.00 0.01 0.00 96 1011.3
20260904070024 70 76 0.0 0.0 0.00 0.32 0.00 96 1011.6
20260904064521 70 76 0.0 0.0 0.00 0.32 0.00 96 1011.7
20260904063121 70 75 0.0 0.0 0.00 0.32 0.00 96 1011.8
20260904061536 70 75 0.0 0.0 0.00 0.32 0.00 96 1011.7